Location: Chervonnoye
(48.6000°N, 34.4000°E)
Time: 13:52:49
(UTC+00:00)

Cosmos 1805 Rocket - Pass Details

Date: 23 November 2020
Orbit: 605 x 631 km, 82.5° (Epoch: 26 January)

Event Time Altitude Azimuth Distance (km) Brightness Sun altitude
Rises 15:14:20 0° 351° (N) 2,937 7.0 -12.9°
Reaches altitude 10° 15:16:36 10° 353° (N) 2,024 6.1 -13.3°
Maximum altitude 15:21:06 77° 79° (E) 652 3.5 -14.0°
Drops below altitude 10° 15:25:32 10° 167° (SSE) 2,000 6.2 -14.7°
Sets 15:27:45 0° 168° (SSE) 2,899 7.0 -15.1°
